Weather History for KMRY - August, 2014

Change the Weather History Date:

Friday, August 1, 2014

  Actual Average Record
Temperature  
Mean Temperature 63 °F 61 °F  
Max Temperature 70 °F 67 °F 74 °F (2015)
Min Temperature 56 °F 54 °F 51 °F (2012)
Degree Days  
Heating Degree Days 2    
Month to date heating degree days 2  
Since 1 June heating degree days 172  
Since 1 July heating degree days 60  
Cooling Degree Days 0    
Month to date cooling degree days 0  
Year to date cooling degree days 68  
Since 1 June cooling degree days 26  
Growing Degree Days 10 (Base 50)    
Moisture  
Dew Point 56 °F    
Average Humidity 83    
Maximum Humidity 100    
Minimum Humidity 66    
Precipitation  
Precipitation 0.00 in - 0.00 in (2015)
Month to date precipitation 0.00  
Year to date precipitation 7.40  
Since 1 July precipitation 0.01  
Sea Level Pressure  
Sea Level Pressure 29.96 in    
Wind  
Wind Speed 5 mph (West)    
Max Wind Speed 14 mph    
Max Gust Speed 18 mph    
Visibility 7 miles    
Events      
T = Trace of Precipitation, MM = Missing Value Source: NWS Daily Summary

Daily Weather History Graph

Daily Weather History Graph

Search for Another Location

Airport or City:

Trip Planner

Search our weather history database for the weather conditions in past years. The results will help you decide how hot, cold, wet, or windy it might be!

Date:

Astronomy

Aug. 01, 2014 Rise Set
Actual Time 6:13 AM PDT 8:13 PM PDT
Civil Twilight 5:45 AM PDT 8:41 PM PDT
Nautical Twilight 5:10 AM PDT 9:16 PM PDT
Astronomical Twilight 4:32 AM PDT 9:53 PM PDT
Moon 11:32 AM PDT 11:11 PM PDT
Length of Visible Light 14h 56m
Length of Day
13h 59m
Waxing Crescent, 28% of the Moon is Illuminated
Aug 1
Waxing Crescent
Aug 3
First Quarter
Aug 10
Full
Aug 17
Last Quarter
Aug 25
New

Hourly Weather History & Observations

Time (PDT) Temp. Dew Point Humidity Pressure Visibility Wind Dir Wind Speed Gust Speed Precip Events Conditions
12:25 AM 57.2 °F 57.2 °F 100% 29.94 in 8.0 mi Calm Calm - N/A   Overcast
1:54 AM 57.9 °F 55.9 °F 93% 29.96 in 10.0 mi Calm Calm - N/A   Overcast
2:36 AM 57.2 °F 55.4 °F 94% 29.92 in 10.0 mi Calm Calm - N/A   Overcast
2:54 AM 55.9 °F 54.0 °F 93% 29.96 in 10.0 mi Calm Calm - N/A   Overcast
3:54 AM 57.0 °F 55.0 °F 93% 29.96 in 10.0 mi South 4.6 mph - N/A   Overcast
4:54 AM 57.0 °F 55.0 °F 93% 29.96 in 7.0 mi WSW 4.6 mph - N/A   Overcast
5:37 AM 57.2 °F 55.4 °F 94% 29.92 in 2.5 mi West 3.5 mph - N/A   Overcast
5:47 AM 57.2 °F 55.4 °F 94% 29.92 in 4.0 mi Calm Calm - N/A   Overcast
5:54 AM 57.0 °F 55.9 °F 96% 29.96 in 7.0 mi Variable 3.5 mph - N/A   Overcast
6:54 AM 55.9 °F 55.0 °F 97% 29.97 in 2.0 mi SSW 3.5 mph - N/A   Overcast
7:04 AM 55.4 °F 55.4 °F 100% 29.94 in 1.0 mi Calm Calm - N/A   Overcast
7:54 AM 57.0 °F 57.0 °F 100% 29.98 in 1.0 mi Calm Calm - N/A   Overcast
7:57 AM 57.2 °F 57.2 °F 100% 29.94 in 2.0 mi Calm Calm - N/A   Overcast
8:38 AM 57.2 °F 57.2 °F 100% 29.95 in 2.0 mi Calm Calm - N/A   Overcast
9:01 AM 59.0 °F 55.4 °F 88% 29.95 in 10.0 mi Calm Calm - N/A   Overcast
9:54 AM 60.1 °F 57.0 °F 90% 30.00 in 10.0 mi West 4.6 mph - N/A   Overcast
10:12 AM 60.8 °F 57.2 °F 88% 29.96 in 10.0 mi West 5.8 mph - N/A   Overcast
10:52 AM 62.6 °F 57.2 °F 82% 29.96 in 8.0 mi WSW 8.1 mph - N/A   Scattered Clouds
11:54 AM 64.9 °F 57.0 °F 75% 29.99 in 10.0 mi West 6.9 mph - N/A   Scattered Clouds
12:54 PM 64.0 °F 57.0 °F 78% 29.99 in 8.0 mi WNW 8.1 mph - N/A   Clear
1:54 PM 66.0 °F 57.0 °F 73% 29.98 in 10.0 mi WNW 11.5 mph 17.3 mph N/A   Clear
4:54 PM 66.9 °F 57.0 °F 70% 29.96 in 10.0 mi West 9.2 mph - N/A   Clear
5:54 PM 64.9 °F 57.0 °F 75% 29.94 in 10.0 mi West 6.9 mph - N/A   Clear
6:54 PM 62.1 °F 57.0 °F 84% 29.95 in 10.0 mi WSW 5.8 mph - N/A   Scattered Clouds
7:25 PM 62.6 °F 57.2 °F 82% 29.92 in 9.0 mi West 8.1 mph - N/A   Mostly Cloudy
7:54 PM 61.0 °F 57.0 °F 87% 29.96 in 8.0 mi West 4.6 mph - N/A   Overcast
8:54 PM 60.1 °F 57.0 °F 90% 29.96 in 8.0 mi West 4.6 mph - N/A   Overcast
9:54 PM 59.0 °F 57.0 °F 93% 29.98 in 7.0 mi West 5.8 mph - N/A   Overcast
10:54 PM 59.0 °F 57.0 °F 93% 29.97 in 8.0 mi Calm Calm - N/A   Overcast
11:54 PM 57.9 °F 55.9 °F 93% 29.97 in 10.0 mi WSW 4.6 mph - N/A   Overcast